C/2004 K1 (Catalina)

Epoch 2005 July 9.0 TT = JDT 2453560.5  

T 2005 July 5.10746 TT                                  Nakano

q   3.3991445            (2000.0)            P               Q

z  +0.0004908      Peri.   97.75654     -0.59803438     -0.76425791

 +/-0.0000007      Node   326.92726     -0.78998444     +0.61290021

e   0.9983316      Incl.  153.74737     +0.13520158     +0.20065686

From 1074 observations 2004 May 2-2007 Feb. 7, mean residual 0".64.

   (1/a)org.= +0.000856, (1/a)fut.= +0.000586 (+/-0.000001), Q= 8.

Residuals in seconds of arc 

2004/                     050501 J76  0.6-  0.2-    050617 J97  0.5-  0.2-  

040502 608  0.0   0.8-    050501 J76  1.4-  0.8-    050617 J97  0.9-  0.4+  

040502 608  0.0   0.0     050501 A61  0.6-  0.2-    050618 232  0.0   0.0   

040502 608  0.3-  0.5+    050501 A61  0.5-  1.2+    050618 232  0.0   0.2+  

040521 703  1.0-  0.8-    050502 918  0.2-  0.0     050618 232  0.1-  0.2+  

040521 703  0.1-  0.1-    050502 918  0.0   0.1-    050618 J76  0.3-  0.2+  

040521 703  0.5+  0.0     050502 918  0.1-  0.1-    050618 J76  0.2-  0.4+  

040521 703  0.2+  0.7-    050503 D88  0.4+  0.2-    050618 J76  0.0   0.6+  

040522 701  0.7+  0.9-    050503 D88  0.1-  0.5-    050618 750  0.5-  0.1-  

040522 701  0.6+  0.5-    050503 D88  0.1+  0.8-    050618 750  0.3-  0.2+  

040523 J75  0.2-  0.6-    050503 355  0.2-  0.4-    050618 939  0.1-  0.9-  

040523 J75  0.1-  0.5-    050503 355  0.2-  0.5-    050618 213  0.2-  0.3+  

040523 J95 (0.7+  2.9-)   050503 355  0.2-  0.6-    050618 213  0.2-  0.6+  

040523 J95  1.0+  2.0-    050504 D88  1.1-  0.1+    050618 213  0.8-  0.2+  

040523 651  0.2+  0.9-    050504 D88  0.2+  0.7-    050618 939  0.1-  0.7-  

040523 651  0.1-  0.4-    050504 D88  0.2-  0.3+    050618 A06 (2.5+  0.7-) 

040523 850  1.5-  0.6+    050504 349  0.3-  0.8-    050618 939  0.0   0.7-  

040523 651  1.0-  0.1-    050504 349  0.3-  0.8-    050618 A06  1.8+  0.5-  

040523 850  1.4+  0.3-    050504 349  0.6-  0.6-    050618 A06  1.1+  0.5-  

040523 850  0.3+  0.3+    050504 360  0.6-  0.2+    050619 H42  0.7-  0.8+  

040523 H06  0.3+  0.7-    050504 360  0.7-  0.2+    050619 H42  0.5-  0.5+  

040523 H06  0.6-  0.1-    050504 360  0.7-  0.1+    050619 704  0.2-  0.1+  

040523 850  0.4+  0.1-    050505 H45  0.1+  0.3-    050619 704  0.5+  0.8+  

040523 H06  1.0-  0.1-    050505 H45  0.0   0.6-    050619 704 (2.1+  0.0 ) 

040523 704  1.4+  0.1+    050505 H45  0.1+  0.4-    050619 H42  0.6-  0.6+  

040523 704  0.4+  0.5-    050505 H45  0.2+  0.2-    050619 704  0.9+  0.7+  

040523 G90  0.1+  0.3+    050505 213  0.6+  0.2-    050619 704(14.7+  5.4-) 

040523 704  0.6-  0.8-    050505 213  1.0-  0.0     050619 704 (2.5+  0.8-) 

040523 G90  0.1+  0.0     050505 213  0.6-  0.1-    050619 H42  0.7-  0.1+  

040523 G90  0.1+  0.0     050506 945  0.7-  0.4+    050619 J97  0.6-  0.1+  

040523 704  0.5-  0.3-    050506 945  0.5-  0.4+    050620 704  0.6+  0.0   

040523 704  0.7+  1.1+    050506 945  0.6-  0.0     050620 704  0.0   0.4+  

040523 926  0.5+  0.2-    050506 945  0.5-  0.6+    050620 704  0.7+  0.0   

040523 926  0.0   0.0     050506 945  0.5-  0.3+    050620 704  0.9+  0.1-  

040523 926  0.5-  0.1+    050506 A06  0.4+  0.4-    050624 J78  0.1+  1.0-  

040524 106  0.6+  0.6-    050506 A06  0.5+  0.1-    050624 J78  0.0   0.4-  

040524 106  1.2+  0.1+    050506 A06  0.3+  1.6-    050624 J78  0.4-  0.4+  

040524 106 (0.0   2.2-)   050506 A06  0.2-  1.0-    050625 232  0.4+  0.3-  

040524 J95  0.6+  0.2-    050506 J76  0.4-  0.4+    050625 232  0.9+  0.5-  

040524 J95  0.8+  2.0-    050506 J76  0.4-  0.3+    050625 J76  0.6-  0.6+  

040524 J95  0.5+  0.2-    050506 J76  0.3-  0.4+    050625 232  0.3+  1.7-  

040524 620  0.2+  0.7-    050507 939  1.2-  0.8-    050625 J76  0.2-  1.2+  

040524 620  0.5+  0.0     050507 939  0.9-  0.6-    050625 J76  0.3-  0.8+  

040524 701  1.0+  0.7-    050507 212  0.1-  0.2+    050625 349  1.1+  0.3-  

040524 704  0.3+  0.2-    050507 939  0.5-  0.7-    050625 349  1.3+  0.2-  

040524 696  0.3+  0.0     050507 212  0.1-  0.3+    050625 349  1.9+  0.1-  

040524 704  0.3+  0.2+    050507 212  0.0   0.0     050625 D70  1.0-  1.4-  

040524 701  1.1+  0.3-    050507 A61  0.5-  0.1-    050625 D70  0.1+  0.2-  

040524 704  0.3+  0.2-    050507 A61  0.3-  0.1-    050625 A06  1.3+  0.6+  

040524 807  0.3+  0.1-    050507 A61  0.5-  0.2-    050625 A06  1.3+  0.1+  

040524 807  0.5+  0.1-    050507 D88  0.4-  0.7-    050625 A06  1.4+  0.2-  

040524 696  0.4+  0.0     050507 D88  0.3-  0.3-    050625 J78  0.4+  0.1+  

040524 807  0.0   0.1+    050507 D88  0.3-  0.2+    050625 J78  0.8+  0.1+  

040524 704  0.2+  0.1-    050508 232  0.4-  0.4-    050625 J78  0.6+  0.2-  

040524 926  1.0+  0.5-    050508 232  0.8-  0.1-    050625 939  0.4-  0.3-  

040524 926  0.4+  0.4-    050508 232  0.2-  0.2-    050625 939  0.4+  0.6-  

040524 926  1.1-  0.4-    050508 213  0.2-  0.2-    050625 213  1.0-  0.6-  

040525 673  0.2+  0.1+    050508 213  0.4-  0.1+    050625 213  0.6-  0.2-  

040525 673  0.3+  0.2+    050508 213  0.4-  0.2-    050625 939  1.5+  0.9-  

040525 673  0.8+  0.0     050508 204  1.1-  1.0-    050625 213  0.7-  0.3-  

040525 673  0.4+  0.1+    050508 A01  0.1+  1.0-    050625 I77  0.1-  0.8-  

040525 349  0.7+  0.1-    050508 204  1.0-  0.2-    050625 I77  0.5+  0.3+  

040525 349  0.8+  0.6-    050508 204  0.3-  0.5-    050625 I77  0.4+  0.6+  

040525 360  0.2+  0.2-    050508 A01  1.1-  0.3-    050628 048  1.1-  0.0   

040525 360  0.1-  0.0     050509 415  0.5-  0.0     050628 048  0.2-  0.2+  

040525 360  0.3+  0.1-    050509 415  0.4-  0.4+    050628 048  0.3-  0.3+  

040527 360  0.2+  0.3-    050509 415  0.3-  0.2-    050628 048  0.6-  0.1-  

040527 360  0.1-  0.3-    050510 H45  0.5-  0.8-    050628 048  0.1+  0.5+  

040527 360  0.1+  0.2-    050510 H45  0.3-  0.8-    050628 J78  0.1-  0.0   

040608 204  0.2+  0.1-    050510 H45  0.5-  0.8-    050628 J78  0.5-  0.1+  

040608 204  0.2+  0.3-    050510 H45  0.1-  0.4-    050628 J78  0.6-  0.1+  

040608 204  0.1+  0.4-    050510 H45  0.1+  1.0-    050628 J97  1.3+  0.6+  

040612 704  0.4+  0.4-    050510 349  0.0   0.5-    050628 J97  0.3+  0.0   

040612 704  0.3+  0.1-    050510 349  0.2+  0.4-    050628 J97  0.9-  0.6+  

040612 644  0.2+  0.5+    050510 349  0.2+  0.2-    050629 213  0.4-  0.4+  

040612 704  0.2+  0.3-    050511 333  0.7+  1.5-    050629 213  0.3-  0.2+  

040612 704  0.2+  0.4-    050511 333  1.0+  1.0-    050629 213  0.1-  0.0   

040612 704  0.2+  0.7-    050511 333  0.6+  0.7-    050630 213  0.3-  0.5+  

040612 644  0.2+  0.1+    050511 333 (1.1+  2.2-)   050630 213  0.5-  0.5+  

040612 644  0.2+  0.2+    050511 703 (7.3+  7.5-)   050630 213  0.3-  0.7+  

040613 D74  0.8+  0.3+    050511 703 (2.0+  2.8-)   050630 J76  0.9-  0.5+  

040613 D74  0.4+  0.4+    050511 703  1.1+  2.0-    050630 J76  0.4-  0.3+  

040613 360  0.4+  0.4-    050511 703 (3.8+  2.8+)   050630 J76  0.2+  0.1+  

040613 360  0.6+  0.1-    050511 561  0.4-  0.3-    050630 212  0.7+  0.0   

040613 360  0.4+  0.0     050511 561 (3.9+  1.5-)   050630 212  0.4+  0.4+  

040619 673  0.3+  0.3+    050511 561 (3.3-  1.8+)   050630 212  0.5+  0.2+  

040619 673  0.3+  0.3+    050511 561  0.3+  0.0     050701 J76  0.0   0.2+  

040619 673  0.0   0.2+    050511 561  0.8+  0.1-    050701 J76  0.1-  0.1+  

040619 673  0.1+  0.2+    050512 A11  0.7-  0.6+    050701 J76  0.1-  0.2+  

040620 704  0.0   0.1-    050512 A11  0.9-  0.3+    050702 D83  1.2-  0.9+  

040620 704  0.2+  0.1-    050512 A11  0.9-  0.5+    050702 D83  0.4-  0.9+  

040620 704  0.1-  0.2+    050512 A11  1.1-  0.3+    050702 D83  0.5-  0.3+  

040620 704  0.1-  0.4+    050512 A11  1.2-  0.7+    050702 108  0.0   0.1-  

040620 704  1.0-  0.0     050512 A11  1.2-  0.6+    050702 108  1.3-  0.6+  

040621 461  0.2+  0.1+    050512 A11  1.2-  1.0+    050702 108  0.8+  0.4-  

040621 461  0.2+  0.1+    050512 A11  0.1-  0.7-    050702 A06  1.5+  0.3-  

040621 461  0.2+  0.2+    050512 A11 (0.8+  2.2+)   050702 939  0.9+  0.5-  

040621 461  0.1+  0.0     050512 I77  0.2-  0.5-    050702 A06  1.5+  0.3-  

040621 461  0.2+  0.1+    050512 I77  0.3-  0.5-    050702 J76  0.5-  0.4+  

040626 213  0.0   0.3+    050512 I77  0.0   0.9-    050702 939  1.0+  0.6-  

040626 213  0.2-  0.8+    050512 I77  0.4-  0.1+    050702 A06  1.3+  0.1-  

040626 213  0.2+  0.1+    050513 608 (1.7+  3.5-)   050702 939  0.8+  0.8-  

040626 048  0.7+  0.4-    050513 608 (2.0+  3.5-)   050702 J76  0.2-  0.4+  

040626 048  0.3+  0.3+    050513 608 (0.8+  2.3-)   050702 J76  0.0   0.3+  

040626 048  0.1-  0.4+    050514 J76  0.4-  0.0     050703 232  1.5+  1.3-  

040626 048  0.1-  0.5+    050514 J76  0.4-  0.0     050703 232  1.6+  0.8-  

040627 048  0.6+  0.5+    050514 J76  0.4-  0.0     050703 232  1.7+  0.5-  

040630 360  0.0   0.6+    050514 445  0.1+  0.3-    050703 608  0.8+  0.4+  

040630 360  0.6-  0.2+    050514 445  0.8+  0.3+    050703 608  0.8+  0.4+  

040704 561  0.2+  0.5+    050514 445 (2.5+  0.9-)   050703 608  0.9+  0.3+  

040704 561  0.3+  0.3+    050514 A06  0.7-  0.5-    050703 J76  0.1+  0.5+  

040704 561  0.3+  0.4+    050514 A06  0.4+  0.5-    050703 J76  0.6+  0.6+  

040706 048  0.3+  0.2+    050514 A06  0.2+  0.4-    050703 J76  0.8+  0.6+  

040706 048  0.1-  0.6+    050514 A06  0.3-  0.4-    050703 442  0.2+  0.8+  

040706 048  0.0   0.8+    050515 939  0.4+  1.1-    050703 442  0.0   0.6+  

040706 048  0.3-  0.9+    050515 939  0.2+  1.2-    050703 442  0.4+  0.8+  

040706 048  0.6+  0.8+    050515 939  0.5+  1.2-    050703 442  0.6+  0.7+  

040707 785  0.4+  0.1-    050515 232  1.4+  0.6+    050709 A32  0.2+  0.2-  

040707 785  0.8-  0.2-    050515 232  0.1+  0.7-    050709 A32  0.8+  0.4+  

040707 170  0.2+  0.4-    050515 232  0.1+  0.8-    050709 I77  1.0+  0.1+  

